Regional Weather Roundup
Issued by NWS Albany, NY

Home | Current Version | Previous Version | Text Only | Print | Product List | Glossary On
Versions: 1 2 3 4 5 6 7 8 9 10 11 12 13 14 15 16 17 18 19 20 21 22 23 24 25 26 27 28 29 30 31 32 33 34 35 36 37 38 39 40 41 42 43 44 45 46 47 48 49 50
000
ASUS41 KALY 250510
RWRALY

NEW YORK STATE HOURLY WEATHER ROUNDUP
NATIONAL WEATHER SERVICE ALBANY NY
1200 AM EST SUN JAN 25 2015

NOTE: "FAIR" INDICATES FEW OR NO CLOUDS BELOW 12,000 FEET WITH NO
SIGNIFICANT WEATHER AND/OR NO OBSTRUCTIONS TO VISIBILITY.

NYZ032-033-038>043-046>054-057>066-NYZ062>081-250600-
EAST


CITY           SKY/WX    TMP DP  RH WIND       PRES   REMARKS
ALBANY         CLOUDY    32  25  75 W13       29.41S WCI  22
GLENS FALLS    CLOUDY    31  23  72 SW8       29.36R WCI  23
POUGHKEEPSIE   CLOUDY    34  24  67 W6        29.44S WCI  29
NEWBURGH       MOCLDY    32  27  80 NW16G23   29.45R WCI  21
MONTGOMERY     CLOUDY    34  24  67 W10G18    29.45R WCI  26
WHITE PLAINS   CLOUDY    33  24  69 W14G28    29.44R WCI  23
ISLIP          CLOUDY    34  25  69 W14       29.44R WCI  25
NEW YORK CITY  MOCLDY    36  24  62 W16G25    29.49R WCI  26
CENTRAL PARK   CLOUDY    36  24  62 W9G17     29.51R WCI  29
$$

NYZ005>009-017-018-044>046-055-056-250600-
CENTRAL


CITY           SKY/WX    TMP DP  RH WIND       PRES   REMARKS
FULTON         CLOUDY    33  28  81 W13       29.45S WCI  24
SYRACUSE       LGT SNOW  28  28 100 W17       29.46R FOG     WCI  16
ROME           LGT SNOW  30  28  92 W10       29.45R FOG     WCI  21
ELMIRA         CLOUDY    32  24  72 W9        29.51R WCI  24
BINGHAMTON     FLURRIES  28  23  81 W10       29.43S WCI  19
MONTICELLO     CLOUDY    28  25  86 W10       29.43S WCI  19
$$

NYZ026>034-041>043-250600-
NORTH


CITY           SKY/WX    TMP DP  RH WIND       PRES   REMARKS
WATERTOWN      CLOUDY    34  31  88 W14       29.41R FOG     WCI  25
FORT DRUM      NOT AVBL
MASSENA        LGT SNOW  30  30 100 SW10      29.35S FOG     WCI  21
SARANAC LAKE   LGT SNOW  26  24  92 SW7       29.26S FOG     WCI  18
PLATTSBURGH    CLOUDY    32  24  72 W6        29.30S WCI  26
$$

NYZ001>004-010>016-019>021-250600-
WEST


CITY           SKY/WX    TMP DP  RH WIND       PRES   REMARKS
NIAGARA FALLS  CLOUDY    31  28  89 W15       29.53R FOG     WCI  20
BUFFALO        LGT SNOW  32  29  88 W16       29.52S FOG     WCI  21
DUNKIRK        CLOUDY    32  30  92 W15       29.57S FOG     WCI  22
JAMESTOWN      CLOUDY    30  27  86 W12G18    29.54S WCI  21
WELLSVILLE     FLURRIES  27  23  85 W13G20    29.49S WCI  16
ROCHESTER      FLURRIES  33  29  85 W15       29.49R WCI  23
PENN YAN       FLURRIES  32  26  78 W15       29.49R WCI  22
$$

             KEY
       WCI = WIND CHILL INDEX
       VSB = VISIBILITY
       HX  = HEAT INDEX
$$


USA.gov is the U.S. government's official web portal to all federal, state and local government web resources and services.